This is the latest recevied weather packets stored in our database for station/object KE0LFX. If no packets are shown the sender has not sent any weather packets the latest 1 day(s).
| Time | Temp. | Humidity | Pressure | Rain* | Wind** | Luminosity | Snow |
|---|---|---|---|---|---|---|---|
| 1777987275 | 9.44° C | 49% | 1014.8 hPa | 0 mm | 1.34 m/s, 337° | 69 W/m² | - |
| 1777986971 | 9.44° C | 50% | 1014.9 hPa | 0 mm | 1.79 m/s, 334° | 77 W/m² | - |
| 1777986670 | 9.44° C | 53% | 1014.9 hPa | 0 mm | 0.45 m/s, 298° | 83 W/m² | - |
| 1777986367 | 9.44° C | 53% | 1015 hPa | 0 mm | 0 m/s | 80 W/m² | - |
| 1777986065 | 9.44° C | 55% | 1015.3 hPa | 0 mm | 0 m/s | 75 W/m² | - |
| 1777985762 | 9.44° C | 54% | 1015 hPa | 0 mm | 0.45 m/s, 342° | 51 W/m² | - |
| 1777985459 | 8.89° C | 54% | 1015.3 hPa | 0 mm | 0.89 m/s, 353° | 39 W/m² | - |
| 1777985155 | 8.89° C | 56% | 1015.5 hPa | 0 mm | 0 m/s | 42 W/m² | - |
| 1777984851 | 8.89° C | 55% | 1015.6 hPa | 0 mm | 0.45 m/s, 301° | 30 W/m² | - |
| 1777984548 | 8.89° C | 56% | 1015.4 hPa | 0 mm | 0 m/s | 33 W/m² | - |
| 1777984244 | 8.89° C | 56% | 1015.4 hPa | 0 mm | 0 m/s | 46 W/m² | - |
| 1777983941 | 8.89° C | 57% | 1015.6 hPa | 0 mm | 1.34 m/s, 272° | 55 W/m² | - |
| 1777983638 | 8.33° C | 58% | 1015.5 hPa | 0 mm | 0.45 m/s, 262° | 63 W/m² | - |
| 1777983334 | 8.33° C | 61% | 1015.6 hPa | 0 mm | 0 m/s | 63 W/m² | - |
| 1777983031 | 7.78° C | 61% | 1015.4 hPa | 0 mm | 0 m/s | 39 W/m² | - |
| 1777982728 | 8.33° C | 60% | 1015.2 hPa | 0 mm | 0 m/s | 34 W/m² | - |
| 1777982423 | 8.33° C | 59% | 1015 hPa | 0 mm | 0 m/s | 26 W/m² | - |
| 1777982118 | 8.33° C | 58% | 1014.8 hPa | 0 mm | 0.45 m/s, 272° | 18 W/m² | - |
| 1777981816 | 7.78° C | 58% | 1015 hPa | 0 mm | 0.45 m/s, 271° | 19 W/m² | - |
| 1777981513 | 7.78° C | 58% | 1015 hPa | 0 mm | 0.45 m/s, 264° | 28 W/m² | - |
| 1777981209 | 7.78° C | 59% | 1014.8 hPa | 0 mm | 0 m/s | 28 W/m² | - |
| 1777980906 | 7.78° C | 58% | 1014.8 hPa | 0 mm | 0 m/s | 18 W/m² | - |
| 1777980601 | 7.78° C | 57% | 1014.5 hPa | 0 mm | 0 m/s | 12 W/m² | - |
| 1777980298 | 7.78° C | 59% | 1014.6 hPa | 0 mm | 0.45 m/s, 248° | 7 W/m² | - |
| 1777979996 | 7.78° C | 59% | 1014.5 hPa | 0 mm | 0 m/s | 4 W/m² | - |
* Rain latest hour (hover to see other rain measurements)
** Current wind speed in m/s (hover to see current wind gust speed)